カタログに戻る

IRNSS 1G

運用中ナビゲーションGEO
NORAD 41469·PAYLOAD·🇮🇳 India

打ち上げ Apr 28, 2016 から Satish Dhawan Space Centre

Loading…

TLE

最新Source: Space-Track

元期: Sep 14, 2026, 21:15 UTC

1 41469U 16027A   26257.88586059 -.00000342  00000-0  00000-0 0  9991
2 41469   5.4123  95.3866 0003863  48.1475 298.5737  1.00264039 38071

AllMySatでIRNSS 1Gをリアルタイム追跡

Download on the App Store